Weather in Chisasibi

Canada     53°42′11″N   78°33′55″W
temp.,
°C
wind,
m/s
gust,
m/s
humid.,
%
clouds,
%
prec.,
mm/h
press.,
hPa
HPBL,
m
26 january, wed
wed2601:00−27sw61195100 0.2 1019387
04:00−29ssw5119785 0.0 1019251
07:00−29ssw6159468 0.0 1018335
10:00−26ssw81990100 0.0 1017491
13:00−23s92085100 0.0 1013577
16:00−20s112278100 0.0 1007682
19:00−16s122279100 0.0 1003887
22:00−15s122392100 0.6 10001102
27 january, thu
thu2701:00−11ssw112091100 2.0 9961213
04:00−10ssw101792100 1.2 9951073
07:00−10wsw71194100 2.4 994863
10:00−20w71296100 0.8 999718
13:00−22w81292100 1.0 1003829
16:00−25w71292100 0.1 1007838
19:00−27w71292100 0.2 1012747
22:00−27w61293100 0.1 1014634
28 january, fri
fri2801:00−29w51095100 0.1 1016287
04:00−27wsw51096100 0.1 1018467
07:00−28wsw5996100 0.1 1020317
10:00−28sw5999100 0.0 1021304
13:00−24sw5892100 0.1 1020416
16:00−24sw51095100 0.1 1021461
19:00−24sw51096100 0.3 1022469
22:00−23sw4897100 0.1 1022285
29 january, sat
sat2901:00−27ssw22100100 0.1 102314
04:00−29s22100100 0.0 102416
07:00−30sse22100100 0.0 102428
10:00−25sse369865 0.0 1024138
13:00−20s4690100 0.0 1023517
16:00−19sse3592100 0.0 1022441
19:00−21sse2398100 0.1 102151
22:00−21s1199100 0.1 102042
30 january, sun
sun3001:00−21nw11100100 0.2 101723
04:00−21nnw2398100 0.1 1016123
07:00−22nnw259885 0.2 1016126
10:00−22nnw359783 0.0 1016208
13:00−21nw4589100 0.1 1015600
16:00−23nw4694100 0.1 1016399
19:00−31wnw2210058 0.1 101929
22:00−36w1110057 0.0 10209